Temperature
19 18 19 19 19 19 19 19 19 19 19 19 19 19 19 19 19 18 18 18 18 18 18 18 18 18 18 18 18 18 18 18 18 17 17 17 17 17 17 17 17 16 17
20 19 19 19 19 19 19 19 19 19 19 19 19 19 19 19 18 18 18 18 18 18 18 18 18 18 18 18 17 17 17 17 17 17 17 17 17 17 17 17 17 17 17
19 19 19 19 19 19 19 19 19 19 19 19 19 19 18 18 18 18 18 18 18 18 18 18 18 18 18 17 17 17 17 17 17 17 17 16 17 17 17 17 17 17 17
19 19 19 19 19 19 19 19 19 19 19 19 19 19 18 18 18 18 18 18 18 18 18 18 18 18 17 17 17 17 17 17 17 17 17 16 16 17 17 17 17 17 17
19 19 19 19 19 19 19 19 19 19 19 19 19 18 18 18 18 18 18 18 18 18 18 18 18 18 17 17 17 17 17 17 17 17 16 16 16 17 17 17 17 17 17
19 19 19 19 19 19 19 19 19 19 19 19 19 18 18 18 18 18 18 18 18 18 18 18 17 17 17 17 17 17 17 17 17 16 16 16 16 17 17 17 17 17 17
19 19 19 19 19 19 19 19 19 19 19 19 18 18 18 18 18 18 18 18 18 18 18 17 17 17 17 17 17 17 17 17 17 16 16 16 16 17 17 17 17 17 16
20 19 18 19 19 19 19 19 19 19 19 18 18 18 18 18 18 18 18 18 18 18 18 17 17 17 17 17 17 17 17 17 16 16 16 16 17 17 17 17 16 16 16
20 19 18 18 19 19 19 19 18 18 18 18 18 18 18 18 18 18 18 18 18 18 17 17 17 17 17 17 17 17 17 17 17 16 16 16 17 17 17 17 16 16 16
19 19 18 18 18 18 18 18 18 18 18 18 18 18 18 18 18 18 18 18 18 18 17 17 17 17 17 17 17 17 17 17 17 17 16 16 17 17 16 16 16 16 16
18 18 19 18 18 18 18 18 18 18 18 18 18 18 18 17 17 17 17 18 18 18 17 17 17 17 17 17 17 17 17 17 17 17 16 17 17 17 16 16 16 16 16
18 18 18 18 18 18 18 17 18 17 18 17 17 17 17 17 17 17 17 18 18 18 18 17 17 17 17 17 17 17 17 17 17 17 16 17 17 16 16 16 16 16 16
18 18 18 18 18 18 18 18 18 17 17 17 17 17 17 17 17 17 17 17 17 17 17 17 17 17 17 17 17 17 17 17 17 17 16 17 17 17 16 16 16 16 16
18 18 18 18 18 18 18 18 18 17 17 17 17 17 17 17 17 17 17 17 17 17 17 17 17 17 17 17 17 17 17 17 17 17 17 17 17 17 17 16 16 16 16
18 18 18 18 18 18 18 18 17 17 17 17 17 17 17 17 17 17 17 17 17 17 17 17 17 17 17 17 17 16 16 16 16 17 16 17 17 17 17 16 16 16 16
18 18 18 18 18 18 18 18 17 17 17 17 17 17 17 17 17 17 17 17 17 17 17 17 17 17 17 17 17 16 16 16 16 16 16 17 17 17 17 17 16 16 16
19 19 18 18 18 18 18 18 17 17 17 17 17 17 17 17 17 17 17 17 17 17 17 17 17 17 17 17 17 17 16 16 16 16 16 16 16 17 17 17 16 16 16
19 19 19 18 18 18 18 18 17 17 17 17 17 17 17 17 17 17 17 17 17 17 17 17 17 17 17 17 17 17 17 16 16 16 16 16 16 16 16 17 17 16 16
19 19 19 18 18 18 18 18 17 17 17 17 17 17 17 17 17 17 17 17 17 17 17 17 17 17 17 17 17 17 17 17 16 16 16 16 16 16 16 16 17 17 16
19 19 19 18 18 18 18 18 17 17 17 17 17 17 17 17 17 17 17 17 17 17 17 17 17 17 17 17 17 17 17 17 17 17 16 16 16 16 16 16 16 16 16
19 18 18 18 18 18 17 17 17 17 17 17 17 17 17 17 17 17 17 17 17 17 17 17 17 17 17 17 17 17 17 17 17 17 17 17 17 16 16 16 16 16 16
18 18 18 18 18 18 18 18 18 18 17 17 17 17 17 17 17 17 17 17 17 17 17 17 17 17 17 17 17 18 18 18 17 18 17 17 17 17 16 16 16 16 16
18 18 18 18 18 18 18 17 17 17 17 17 17 17 17 17 17 17 17 17 17 17 17 17 17 17 17 17 17 18 18 19 19 18 17 17 17 17 17 17 16 16 16
18 18 18 18 18 18 18 17 17 17 17 17 17 17 17 17 17 17 17 17 17 17 17 17 17 17 17 17 17 17 17 18 18 18 18 18 17 17 17 17 17 16 16
18 18 18 18 18 18 17 17 17 17 17 17 17 17 17 17 17 17 17 17 17 17 17 17 17 17 17 17 17 17 17 17 17 18 18 18 18 18 17 17 17 17 17
18 18 18 18 18 17 18 17 17 17 17 17 17 17 17 17 17 17 17 17 17 17 17 17 17 17 17 17 17 17 17 17 18 18 18 18 18 18 17 17 17 17 17
Wind_Speed
12 14 14 13 14 15 16 16 17 17 17 16 15 15 14 14 13 13 13 13 13 13 13 13 13 13 13 14 14 14 15 15 15 16 16 16 16 16 15 14 14 16 17
16 17 15 14 15 15 16 16 17 17 16 16 15 14 14 13 13 13 13 13 13 13 13 14 14 14 14 14 14 15 15 15 15 16 16 17 17 15 13 12 13 16 16
17 18 17 14 15 15 16 16 17 16 16 15 15 14 13 13 12 12 12 13 13 13 14 14 14 14 14 14 15 15 15 15 15 13 13 15 16 15 15 15 16 16 16
18 18 17 17 15 15 15 16 16 16 15 15 14 13 13 13 12 12 12 13 13 13 14 14 14 14 14 15 15 15 15 14 12 9 11 14 15 15 15 15 15 15 15
16 17 18 17 16 15 15 15 15 15 14 14 14 13 13 12 12 12 12 13 13 14 14 14 14 14 15 15 15 14 14 12 7 7 13 13 14 14 15 15 15 14 15
16 17 19 17 16 15 15 15 14 14 14 13 13 13 12 12 12 12 12 13 13 13 13 13 14 14 14 14 14 14 12 9 7 12 12 12 13 13 14 14 13 14 14
15 16 19 17 16 15 14 14 14 13 13 12 12 12 12 12 12 13 12 13 13 13 13 13 13 13 13 13 13 12 10 4 8 11 11 12 14 13 13 13 13 13 13
15 16 18 17 16 15 14 14 13 13 12 12 12 12 12 12 13 13 12 13 13 12 13 13 12 12 13 12 12 11 8 4 10 10 10 13 14 13 13 13 13 13 13
14 14 16 17 16 14 14 13 13 12 12 12 11 11 12 12 12 12 12 12 12 12 12 12 12 12 12 12 11 10 7 0 8 9 10 11 12 12 12 12 12 12 12
12 13 14 14 14 14 14 13 13 12 12 12 11 11 11 12 12 12 12 12 12 11 11 11 11 11 11 11 11 10 7 4 8 9 9 12 11 10 11 11 11 12 11
11 11 12 13 13 12 13 14 13 12 11 12 11 11 10 10 11 11 12 12 11 11 10 10 11 11 11 11 10 9 7 4 7 7 9 13 10 9 10 10 10 10 10
14 12 10 11 11 11 10 12 10 10 10 9 9 10 8 7 7 9 12 10 10 10 10 9 9 10 8 9 10 9 5 5 6 7 10 11 9 9 9 9 9 9 10
13 12 11 10 10 10 8 9 8 7 8 8 8 8 7 7 7 8 9 10 10 10 9 9 8 6 5 5 5 5 4 4 5 6 10 10 8 8 8 8 8 8 9
13 12 11 10 9 8 7 7 7 7 7 7 8 8 7 5 5 6 6 7 7 6 5 5 4 5 5 5 4 4 4 3 4 6 10 9 8 8 8 7 7 7 7
12 12 11 10 9 8 6 6 6 6 6 7 7 6 6 5 5 6 5 4 5 5 6 4 4 5 4 4 4 5 4 3 3 4 9 9 8 7 8 8 7 7 7
12 12 11 11 10 9 7 6 5 6 5 6 7 7 6 5 5 5 5 4 4 4 4 4 4 4 4 4 4 4 3 4 4 3 6 9 9 8 8 8 8 8 8
12 12 12 12 11 10 9 8 7 6 7 6 6 7 7 6 6 5 4 5 4 4 4 4 4 4 4 4 4 4 3 3 4 4 4 5 9 10 9 9 8 8 8
12 12 12 11 12 11 9 8 7 7 7 6 6 7 7 6 6 6 5 5 4 5 5 4 4 4 3 3 3 3 3 3 3 4 5 4 5 7 11 11 9 9 9
12 12 12 11 12 11 10 8 7 6 6 6 7 7 7 7 7 6 5 4 6 5 4 5 4 4 4 3 4 3 3 3 4 5 4 5 5 5 6 12 12 10 10
11 12 12 11 11 10 9 7 6 6 6 6 6 6 7 7 8 7 6 6 6 5 5 4 3 3 3 3 4 3 3 4 4 4 5 6 6 6 6 6 9 12 13
10 11 12 12 11 9 8 9 8 8 7 6 6 8 8 8 8 7 5 6 6 5 5 6 5 6 5 4 3 3 4 5 5 5 5 5 6 6 6 6 7 6 10
11 11 11 12 11 11 9 8 7 6 6 6 6 7 9 9 9 8 7 6 6 5 6 6 5 5 4 5 4 4 4 5 5 6 6 6 6 6 6 7 7 6 7
11 12 11 12 11 11 10 8 6 6 5 6 7 7 9 10 9 9 8 7 6 7 6 7 7 7 5 5 5 4 3 3 2 5 6 6 6 5 6 6 7 7 8
10 10 10 12 11 11 10 10 10 9 9 8 7 7 8 10 10 9 9 8 7 7 6 8 7 6 6 5 5 5 5 4 3 2 4 5 5 5 5 5 6 7 7
9 9 9 10 10 11 11 11 11 10 8 7 7 7 7 7 9 9 9 8 8 7 7 7 6 7 6 6 5 5 6 5 6 4 4 3 3 4 4 4 4 4 4
8 8 8 9 10 10 11 11 12 11 9 8 8 8 7 6 7 9 9 8 8 7 7 7 7 8 7 6 6 6 5 5 5 5 5 5 4 3 2 2 2 2 3
Wind_Direction
141 134 129 125 124 125 127 128 127 126 126 126 124 122 121 118 114 111 110 109 106 104 103 105 106 106 106 106 103 102 102 104 106 106 105 105 103 104 106 113 116 106 107
139 135 134 129 127 126 127 128 128 128 127 126 124 123 122 119 116 113 112 110 107 105 104 104 105 105 106 104 103 103 103 104 104 107 111 108 103 102 103 97 93 105 110
139 137 141 133 130 128 126 127 128 128 127 126 125 125 124 121 117 115 113 109 105 105 105 103 104 105 105 105 104 103 103 102 105 112 120 109 104 102 100 97 101 109 110
142 142 142 135 133 131 128 127 127 127 126 126 126 125 124 121 118 116 113 110 107 106 105 104 104 105 105 107 106 105 105 105 112 138 112 104 106 104 103 103 109 109 109
141 139 136 141 137 134 131 129 127 127 126 126 125 125 123 121 118 116 114 112 109 107 106 105 105 105 106 107 107 107 107 109 123 113 97 101 104 109 109 108 109 108 108
143 144 140 144 140 138 134 131 129 128 127 126 124 123 121 119 118 116 114 112 110 109 108 107 106 106 107 109 109 109 110 127 144 102 103 107 107 111 111 111 110 109 110
148 143 142 146 144 142 138 134 132 131 129 128 125 122 121 118 116 115 114 112 111 111 110 108 108 108 108 108 109 112 114 125 102 102 106 103 104 111 112 113 113 113 112
150 145 142 148 147 146 143 140 138 136 131 129 127 122 120 118 116 115 115 115 114 114 113 111 110 111 110 110 113 115 123 154 111 104 103 102 107 113 113 115 116 117 116
152 148 150 155 153 150 147 145 143 139 134 131 129 126 124 122 120 118 118 118 117 117 117 116 115 116 116 115 116 117 117 118 111 107 106 104 112 116 116 117 119 120 119
156 154 155 160 155 156 152 149 145 140 137 135 132 130 129 128 127 129 129 120 120 120 120 120 121 122 122 121 123 126 144 194 112 115 109 110 119 122 123 123 124 125 123
162 163 162 158 158 160 155 148 151 146 144 147 141 139 151 147 139 147 119 124 124 123 122 121 123 127 131 129 131 148 177 137 106 102 99 111 126 126 126 128 127 128 127
167 169 167 163 163 163 155 151 159 160 157 164 148 152 150 138 139 125 124 129 127 127 129 124 131 150 166 138 143 178 152 125 119 115 108 120 131 132 131 132 132 133 132
169 170 170 168 168 165 155 158 160 158 157 159 151 152 146 149 145 141 145 144 146 156 148 144 167 154 134 117 136 139 130 133 117 115 117 132 139 140 139 141 138 138 139
172 174 172 170 170 171 163 160 163 164 167 161 154 166 158 155 153 146 154 152 158 154 147 157 148 134 128 136 133 127 143 147 125 118 126 143 152 154 152 152 148 144 145
176 176 174 173 171 170 166 174 166 169 169 157 156 163 164 162 158 150 148 156 164 151 161 169 157 141 146 148 146 140 143 129 128 138 133 151 164 167 167 167 164 162 160
181 179 176 179 176 174 175 177 170 176 173 168 166 161 175 169 159 161 161 169 170 170 158 167 151 154 160 148 152 145 156 151 148 170 148 156 170 177 180 179 180 181 180
183 181 180 181 180 180 183 186 180 184 177 177 166 166 179 179 167 179 172 181 176 169 163 177 166 169 171 167 160 160 162 166 157 173 172 166 169 179 190 194 194 194 194
183 183 184 186 183 185 187 191 189 189 178 180 177 176 184 182 180 195 187 182 178 186 183 176 199 185 176 183 171 180 165 168 182 187 190 193 189 177 184 194 200 203 203
185 185 185 189 186 187 184 188 189 184 185 187 186 186 185 191 191 206 199 176 190 192 195 207 182 207 187 192 188 187 194 191 188 199 200 202 200 209 192 178 196 205 211
185 185 186 190 190 186 181 182 189 185 190 194 193 191 193 197 199 210 200 192 202 197 201 210 188 216 221 211 219 188 207 203 206 203 210 205 202 211 217 199 197 202 207
183 188 192 193 188 184 184 188 188 190 194 198 202 200 203 207 203 212 213 192 212 208 212 206 206 202 214 208 220 212 211 214 209 210 218 221 211 211 216 212 223 217 195
186 194 198 195 191 192 191 190 192 189 198 199 206 203 210 213 211 209 215 212 206 209 214 214 214 229 217 209 231 235 223 203 209 213 207 216 227 217 217 214 216 218 236
185 192 196 194 195 197 192 188 188 186 202 202 207 207 209 210 212 215 210 218 212 216 210 212 214 225 233 221 228 245 257 246 205 192 210 214 219 223 226 222 218 215 223
188 187 188 190 194 199 195 196 197 200 204 207 210 206 204 209 213 211 209 212 218 223 214 218 214 224 230 231 220 235 262 298 271 217 201 201 206 220 234 236 225 213 220
182 182 184 186 192 197 200 200 204 211 213 208 209 205 210 211 215 213 210 212 216 224 224 229 218 227 227 234 234 228 233 238 249 259 248 228 208 213 218 226 235 232 225
175 177 179 184 193 198 200 203 208 213 215 214 210 209 210 209 211 211 212 213 218 223 221 222 225 225 234 239 246 243 238 240 241 243 246 243 235 221 202 218 230 228 230
Height
1536 1537 1537 1539 1541 1543 1544 1546 1547 1548 1550 1551 1552 1553 1553 1554 1555 1556 1556 1557 1558 1559 1559 1560 1560 1561 1562 1562 1563 1563 1564 1564 1565 1565 1566 1566 1567 1568 1569 1570 1572 1572 1572
1536 1537 1538 1541 1543 1545 1546 1548 1549 1550 1552 1553 1554 1555 1556 1556 1557 1558 1559 1559 1560 1561 1561 1562 1562 1563 1564 1564 1565 1566 1566 1567 1567 1568 1569 1569 1570 1571 1572 1573 1574 1574 1575
1537 1538 1540 1542 1545 1547 1548 1550 1551 1552 1553 1555 1556 1557 1558 1559 1559 1560 1561 1562 1562 1563 1563 1564 1564 1565 1566 1567 1567 1568 1569 1570 1570 1571 1572 1573 1573 1573 1574 1575 1575 1576 1577
1539 1541 1542 1544 1546 1548 1550 1552 1553 1554 1555 1557 1558 1559 1560 1561 1561 1562 1563 1564 1564 1565 1565 1566 1566 1567 1568 1569 1569 1570 1571 1572 1573 1574 1576 1577 1576 1576 1577 1577 1578 1579 1580
1541 1543 1543 1546 1548 1550 1552 1554 1555 1556 1557 1559 1560 1561 1561 1562 1563 1564 1565 1566 1566 1567 1568 1568 1569 1570 1570 1571 1572 1573 1574 1574 1576 1578 1578 1578 1578 1579 1579 1580 1580 1581 1582
1543 1545 1545 1547 1550 1552 1554 1555 1557 1558 1559 1560 1561 1562 1563 1564 1565 1566 1567 1568 1568 1569 1570 1571 1571 1572 1573 1573 1574 1575 1576 1577 1579 1581 1580 1581 1581 1581 1582 1582 1583 1584 1585
1545 1547 1547 1549 1551 1553 1555 1557 1558 1560 1561 1562 1563 1564 1565 1566 1567 1568 1569 1569 1570 1571 1572 1573 1574 1574 1575 1576 1576 1577 1578 1579 1582 1583 1583 1583 1582 1583 1584 1584 1585 1586 1587
1546 1549 1548 1550 1553 1555 1557 1558 1560 1561 1563 1564 1565 1566 1567 1568 1569 1570 1570 1571 1572 1573 1574 1575 1576 1577 1577 1578 1579 1579 1580 1581 1584 1585 1585 1585 1584 1585 1586 1587 1587 1588 1589
1548 1550 1550 1552 1554 1556 1558 1560 1561 1563 1564 1565 1566 1567 1568 1569 1570 1571 1572 1573 1574 1575 1576 1577 1578 1579 1580 1580 1581 1582 1582 1583 1587 1587 1587 1587 1586 1587 1588 1588 1589 1590 1591
1548 1551 1552 1555 1556 1557 1559 1560 1562 1564 1565 1566 1567 1569 1570 1571 1572 1573 1574 1575 1576 1577 1578 1579 1580 1581 1582 1582 1583 1584 1585 1586 1589 1589 1589 1588 1588 1589 1589 1590 1591 1592 1593
1548 1551 1553 1556 1557 1560 1561 1561 1563 1565 1566 1567 1569 1570 1571 1573 1574 1575 1576 1577 1578 1579 1580 1581 1582 1583 1584 1584 1585 1586 1587 1589 1590 1591 1590 1589 1590 1590 1591 1592 1593 1593 1594
1547 1551 1553 1556 1558 1560 1562 1563 1565 1566 1567 1569 1570 1571 1573 1574 1576 1577 1577 1578 1579 1580 1582 1583 1584 1585 1586 1587 1587 1587 1590 1591 1592 1592 1591 1590 1591 1591 1592 1593 1594 1595 1596
1547 1550 1552 1555 1557 1560 1562 1564 1566 1567 1568 1570 1571 1572 1574 1575 1577 1578 1579 1580 1581 1582 1584 1584 1586 1588 1589 1589 1589 1590 1591 1592 1593 1593 1592 1592 1592 1593 1593 1594 1595 1596 1597
1547 1549 1552 1554 1556 1559 1562 1564 1565 1567 1569 1571 1571 1573 1575 1576 1578 1579 1580 1582 1583 1584 1585 1586 1587 1588 1589 1589 1590 1591 1591 1593 1594 1594 1592 1592 1593 1594 1594 1595 1596 1597 1597
1546 1548 1550 1553 1555 1557 1560 1563 1565 1567 1570 1571 1571 1573 1575 1577 1578 1579 1580 1582 1584 1585 1586 1586 1588 1588 1589 1589 1591 1591 1592 1592 1593 1595 1594 1593 1594 1594 1595 1596 1597 1597 1598
1544 1547 1549 1552 1554 1557 1559 1562 1564 1567 1568 1571 1572 1573 1575 1577 1578 1579 1580 1581 1584 1585 1586 1587 1588 1588 1590 1590 1591 1591 1592 1593 1593 1594 1595 1594 1594 1595 1595 1596 1597 1597 1598
1543 1546 1548 1550 1553 1556 1558 1561 1564 1566 1568 1570 1571 1572 1574 1577 1578 1579 1581 1582 1584 1585 1585 1587 1588 1589 1590 1591 1591 1591 1592 1593 1593 1594 1595 1595 1595 1595 1595 1596 1597 1597 1598
1541 1544 1546 1549 1552 1554 1557 1560 1563 1565 1567 1569 1571 1572 1574 1575 1577 1578 1581 1582 1583 1585 1586 1587 1588 1589 1590 1591 1591 1592 1592 1592 1593 1594 1595 1595 1596 1596 1595 1595 1596 1597 1597
1539 1542 1545 1547 1550 1552 1555 1558 1561 1563 1565 1568 1570 1572 1573 1574 1576 1578 1580 1581 1582 1584 1585 1587 1588 1589 1590 1590 1591 1591 1592 1592 1592 1593 1594 1595 1595 1595 1596 1595 1595 1596 1596
1538 1540 1542 1545 1548 1550 1553 1556 1559 1561 1564 1567 1569 1570 1572 1573 1575 1577 1579 1580 1582 1583 1584 1585 1586 1587 1588 1589 1590 1591 1591 1591 1592 1593 1593 1594 1594 1594 1595 1595 1594 1594 1595
1536 1537 1539 1542 1545 1548 1550 1553 1556 1559 1562 1565 1567 1568 1570 1572 1574 1576 1578 1579 1580 1582 1583 1584 1585 1586 1587 1588 1589 1590 1590 1590 1591 1591 1592 1593 1593 1593 1593 1593 1593 1594 1594
1533 1535 1537 1538 1542 1545 1548 1551 1555 1558 1560 1563 1565 1566 1569 1571 1572 1575 1576 1578 1579 1580 1581 1582 1584 1585 1587 1587 1588 1589 1589 1590 1589 1590 1590 1590 1591 1592 1592 1592 1592 1592 1592
1530 1532 1534 1535 1539 1543 1546 1550 1553 1556 1558 1561 1563 1564 1567 1568 1570 1572 1574 1576 1577 1579 1580 1580 1582 1583 1585 1586 1587 1588 1587 1587 1588 1588 1588 1589 1589 1590 1590 1590 1590 1590 1590
1529 1530 1532 1534 1537 1541 1544 1547 1550 1553 1556 1558 1561 1563 1565 1566 1568 1570 1572 1574 1575 1577 1578 1579 1580 1581 1582 1584 1584 1585 1586 1586 1587 1586 1587 1587 1587 1587 1588 1589 1589 1588 1588
1528 1530 1531 1534 1536 1539 1542 1545 1548 1551 1554 1557 1559 1560 1562 1564 1566 1568 1570 1571 1573 1574 1576 1577 1578 1579 1580 1581 1582 1583 1584 1584 1585 1585 1585 1586 1586 1586 1586 1586 1587 1587 1586
1528 1529 1531 1532 1535 1537 1540 1543 1546 1549 1552 1554 1556 1558 1560 1562 1564 1565 1567 1569 1570 1572 1573 1574 1575 1576 1578 1579 1579 1581 1581 1582 1582 1583 1583 1583 1583 1583 1583 1583 1584 1584 1584